{"data":{"norad_id":68855,"intl_designator":"2026-094S","name":"STARLINK-37467","alt_names":[],"object_type":"PAYLOAD","status":"ACTIVE","operator":null,"country":"US","launch_date":"2026-04-26","launch_site_code":"AFWTR","launch_vehicle":null,"mission":null,"orbit_class":"UNKNOWN","rcs_meters":null,"size_class":null,"mass_kg":null,"dimensions":null,"purposes":["comms"],"wikipedia_slug":null,"has_3d_model":false,"image_url":null,"decayed_at":null,"tle_current":{"epoch":"2026-09-20T00:07:42.461184Z","epoch_age_seconds":58265,"freshness":"FRESH","line1":"1 68855U 26094S   26263.00535256  .00010341  00000+0  32214-3 0  9991","line2":"2 68855  97.2861 276.1653 0001712  98.3961 261.7476 15.33449876 22584","mean_motion":15.33449876,"eccentricity":0.0001712,"inclination_deg":97.2861,"raan_deg":276.1653,"arg_perigee_deg":98.3961,"mean_anomaly_deg":261.7476,"bstar":0.00032214,"rev_number":2258,"period_min":93.905906057799,"perigee_km":464.35703140895,"apogee_km":466.70030253332,"semimajor_km":6843.6656669711,"source":"CELESTRAK","updated_at":"2026-09-20T09:00:44.043586Z"}}}